Location: Hurstbourne Priors
(51.2000°N, 1.3667°W)
Time: 22:12:58
(UTC+00:00)

Altair - Pass Details

Date: 13 April 2021
Orbit: 1501 x 1683 km, 47.2° (Epoch: 13 May)

Event Time Altitude Azimuth Distance (km) Brightness Sun altitude
Rises 14:05:17 0° 287° (WNW) 4,699 10.3 41.4°
Reaches altitude 10° 14:08:47 10° 277° (W) 3,693 10.0 41.1°
Maximum altitude 14:16:27 31° 221° (SW) 2,414 11.0 40.3°
Drops below altitude 10° 14:24:03 10° 164° (SSE) 3,643 9.9 39.4°
Sets 14:27:30 0° 154° (SSE) 4,626 10.2 39.0°
